Location: Jarosław
(50.0191°N, 22.6835°E)
Time: 13:05:17
(UTC+01:00)

ISS - Pass Details

Date: 02 February 2019
Orbit: 403 x 411 km, 51.6° (Epoch: 21 February)

Event Time Altitude Azimuth Distance (km) Brightness Sun altitude
Rises 18:05:43 0° 282° (WNW) 2,338 1.4 -16.4°
Reaches altitude 10° 18:07:48 10° 285° (WNW) 1,478 0.1 -16.7°
Maximum altitude 18:11:07 74° 11° (N) 433 -3.8 -17.2°
Enters shadow 18:11:45 53° 77° (ENE) 510 -3.8 -17.3°
